SCP
3 1 0 0 0 0 0 0 0 0 0 0 0 0 0 0 0 0 0 0 0 0
1 0 0 0 0 0 0 0 0 0 0 0 0 0 0 0 0 0 0 0 0 0
0 0 0 0 0 0 0 0 0 0 0 0 0 0 0 0 0 0 0 0 0 0
0 0 0 0 0 0 0 0 0 0 0 0 0 0 0 0 0 0 0 0 0 0
0 0 0 0 0 0 0 0 0 0 0 0 0 0 0 0 0 0 0 0 0 0
0 0 0 0 0 0 0 0 0 0 0 0 0 0 0 0 0 0 0 0 0 0
0 0 0 0 0 0 0 0 0 0 0 0 0 0 0 0 0 0 0 0 0 0
0 0 0 0 0 0 0 0 0 0 0 0 0 0 0 0 0 0 0 0 0 0
0 0 0 0 0 0 0 0 0 0 0 0 0 0 0 0 0 0 0 0 0 0
0 0 0 0 0 0 0 0 0 0 0 0 0 0 0 0 0 0 0 0 0 0
0 0 0 0 0 0 0 0 0 0 0 0 0 0 0 0 0 0 0 0 0 0
0 0 0 0 0 0 0 0 0 0 0 0 0 0 0 0 0 0 0 0 0 0
0 0 0 0 0 0 0 0 0 0 0 0 0 0 0 0 0 0 0 0 0 0
0 0 0 0 0 0 0 0 0 0 0 0 0 0 0 0 0 0 0 0 0 0
Wind_Speed_500mb
54 53 48 44 42 33 31 25 29 26 28 33 38 40 33 27 22 20 21 24 29 31
39 40 36 32 31 32 30 29 29 30 33 36 36 31 28 26 27 25 28 31 33 37
33 31 32 36 32 29 32 30 30 32 35 36 31 28 29 31 32 34 33 35 36 35
34 26 26 26 25 27 28 29 29 31 30 28 27 29 34 36 37 36 37 34 42 44
34 30 30 30 31 30 28 28 28 26 25 25 29 34 39 38 35 38 37 40 41 45
26 27 28 32 30 27 24 22 23 23 25 31 36 37 36 38 40 40 41 42 47 54
21 22 20 20 19 18 17 20 20 23 29 36 40 41 40 40 35 36 44 48 47 52
16 15 16 16 14 15 19 20 22 28 33 38 42 37 34 35 38 41 43 47 56 58
15 13 16 13 10 15 18 20 27 31 40 35 28 27 30 36 42 44 48 51 57 57
12 12 9 6 7 13 18 22 30 36 36 21 25 34 41 44 50 56 59 60 51 54
11 6 2 8 12 16 18 27 35 31 16 33 39 41 46 52 53 59 54 51 51 58
11 5 7 11 15 21 25 29 11 15 29 37 39 39 32 50 45 46 49 55 67 79
9 13 15 15 18 23 22 6 15 20 30 30 34 33 41 31 37 53 67 75 73 56
9 13 14 22 20 19 9 15 17 23 26 31 30 31 32 46 59 68 69 62 57 47
Wind_Direction_500mb
249 250 251 256 258 243 244 264 270 278 289 292 300 304 301 307 316 317 302 298 293 299
238 239 246 248 243 244 262 270 275 281 284 292 300 301 309 318 321 317 321 305 293 294
236 238 241 245 246 260 272 272 274 277 285 295 297 308 318 312 309 300 301 310 300 300
229 229 245 254 265 270 269 271 277 285 289 294 309 314 301 301 301 295 303 305 299 301
232 241 248 247 253 256 264 270 279 287 294 304 304 298 297 299 298 298 297 297 300 307
238 240 246 247 249 252 260 275 290 299 306 304 301 299 299 299 297 297 300 302 305 311
248 255 244 244 251 266 284 301 308 310 307 305 302 301 298 298 302 306 303 305 308 311
269 253 249 255 265 288 304 307 307 307 309 310 306 308 300 302 308 307 307 306 308 304
266 261 257 252 290 309 300 306 311 311 306 314 325 325 316 311 306 309 305 301 299 291
260 271 254 257 289 310 308 303 308 311 319 334 331 322 312 310 302 302 296 294 297 301
234 200 277 287 302 292 291 302 312 319 321 317 318 315 307 305 302 298 299 303 301 302
180 154 286 259 257 281 297 313 344 332 318 315 314 318 315 317 305 303 302 301 307 314
179 224 257 256 273 300 307 326 334 324 313 309 311 304 322 311 309 307 313 317 322 320
226 237 256 276 295 301 315 336 328 308 293 295 296 316 321 323 325 326 325 327 325 327
Wind_Speed_850mb
54 53 48 44 42 33 31 25 29 26 28 33 38 40 33 27 22 20 21 24 29 31
39 40 36 32 31 32 30 29 29 30 33 36 36 31 28 26 27 25 28 31 33 37
33 31 32 36 32 29 32 30 30 32 35 36 31 28 29 31 32 34 33 35 36 35
34 26 26 26 25 27 28 29 29 31 30 28 27 29 34 36 37 36 37 34 42 44
34 30 30 30 31 30 28 28 28 26 25 25 29 34 39 38 35 38 37 40 41 45
26 27 28 32 30 27 24 22 23 23 25 31 36 37 36 38 40 40 41 42 47 54
21 22 20 20 19 18 17 20 20 23 29 36 40 41 40 40 35 36 44 48 47 52
16 15 16 16 14 15 19 20 22 28 33 38 42 37 34 35 38 41 43 47 56 58
15 13 16 13 10 15 18 20 27 31 40 35 28 27 30 36 42 44 48 51 57 57
12 12 9 6 7 13 18 22 30 36 36 21 25 34 41 44 50 56 59 60 51 54
11 6 2 8 12 16 18 27 35 31 16 33 39 41 46 52 53 59 54 51 51 58
11 5 7 11 15 21 25 29 11 15 29 37 39 39 32 50 45 46 49 55 67 79
9 13 15 15 18 23 22 6 15 20 30 30 34 33 41 31 37 53 67 75 73 56
9 13 14 22 20 19 9 15 17 23 26 31 30 31 32 46 59 68 69 62 57 47
Wind_Direction_850mb
249 250 251 256 258 243 244 264 270 278 289 292 300 304 301 307 316 317 302 298 293 299
238 239 246 248 243 244 262 270 275 281 284 292 300 301 309 318 321 317 321 305 293 294
236 238 241 245 246 260 272 272 274 277 285 295 297 308 318 312 309 300 301 310 300 300
229 229 245 254 265 270 269 271 277 285 289 294 309 314 301 301 301 295 303 305 299 301
232 241 248 247 253 256 264 270 279 287 294 304 304 298 297 299 298 298 297 297 300 307
238 240 246 247 249 252 260 275 290 299 306 304 301 299 299 299 297 297 300 302 305 311
248 255 244 244 251 266 284 301 308 310 307 305 302 301 298 298 302 306 303 305 308 311
269 253 249 255 265 288 304 307 307 307 309 310 306 308 300 302 308 307 307 306 308 304
266 261 257 252 290 309 300 306 311 311 306 314 325 325 316 311 306 309 305 301 299 291
260 271 254 257 289 310 308 303 308 311 319 334 331 322 312 310 302 302 296 294 297 301
234 200 277 287 302 292 291 302 312 319 321 317 318 315 307 305 302 298 299 303 301 302
180 154 286 259 257 281 297 313 344 332 318 315 314 318 315 317 305 303 302 301 307 314
179 224 257 256 273 300 307 326 334 324 313 309 311 304 322 311 309 307 313 317 322 320
226 237 256 276 295 301 315 336 328 308 293 295 296 316 321 323 325 326 325 327 325 327